This is the latest recevied weather packets stored in our database for station/object CA4LJZ-10. If no packets are shown the sender has not sent any weather packets the latest 10 day(s).
| Time | Temp. | Humidity | Pressure | Rain* | Wind** | Luminosity | Snow |
|---|---|---|---|---|---|---|---|
| 1777715368 | 9.44° C | 74% | 955.6 hPa | - | - | - | - |
| 1777714466 | 9.44° C | 77% | 955.4 hPa | - | - | - | - |
| 1777713565 | 9.44° C | 75% | 955.7 hPa | - | - | - | - |
| 1777712665 | 9.44° C | 74% | 955.8 hPa | - | - | - | - |
| 1777711764 | 10° C | 73% | 955.8 hPa | - | - | - | - |
| 1777710863 | 8.89° C | 74% | 955.7 hPa | - | - | - | - |
| 1777709962 | 10° C | 72% | 955.7 hPa | - | - | - | - |
| 1777709061 | 10° C | 71% | 955.9 hPa | - | - | - | - |
| 1777708160 | 10° C | 72% | 956.1 hPa | - | - | - | - |
| 1777707259 | 10° C | 72% | 956.5 hPa | - | - | - | - |
| 1777706358 | 10° C | 71% | 956.7 hPa | - | - | - | - |
| 1777705457 | 10.56° C | 71% | 957 hPa | - | - | - | - |
| 1777704556 | 10.56° C | 71% | 957.2 hPa | - | - | - | - |
| 1777703655 | 10.56° C | 72% | 957.4 hPa | - | - | - | - |
| 1777702754 | 10.56° C | 72% | 957.6 hPa | - | - | - | - |
| 1777701853 | 11.11° C | 72% | 957.9 hPa | - | - | - | - |
| 1777700952 | 10.56° C | 72% | 958 hPa | - | - | - | - |
| 1777700051 | 10° C | 76% | 958.1 hPa | - | - | - | - |
| 1777699150 | 10.56° C | 75% | 958.1 hPa | - | - | - | - |
| 1777698249 | 11.11° C | 71% | 958.3 hPa | - | - | - | - |
| 1777697348 | 11.11° C | 72% | 958.5 hPa | - | - | - | - |
| 1777696448 | 11.11° C | 72% | 958.6 hPa | - | - | - | - |
| 1777695546 | 12.22° C | 74% | 958.5 hPa | - | - | - | - |
| 1777694672 | 11.11° C | 72% | 958.7 hPa | - | - | - | - |
| 1777693771 | 11.11° C | 72% | 958.9 hPa | - | - | - | - |
* Rain since midnight (hover to see other rain measurements)
** Current wind speed in m/s (hover to see current wind gust speed)